| time (UTC) | temp F | wind direction | speed MPH | gust MPH | rain 1hr in | rain 24hr in | rain mn in | humidity % | barometer mb |
| 20260510140007 | 42 | 11 | 2.0 | 4.0 | 0.00 | 0.00 | 0.00 | 79 | 994.9 |
| 20260510135507 | 42 | 25 | 2.0 | 4.0 | 0.00 | 0.01 | 0.00 | 79 | 995.0 |
| 20260510135006 | 42 | 327 | 2.0 | 4.0 | 0.00 | 0.01 | 0.00 | 79 | 994.8 |
| 20260510134506 | 42 | 22 | 1.0 | 3.0 | 0.00 | 0.01 | 0.00 | 79 | 994.7 |
| 20260510134005 | 42 | 22 | 1.0 | 3.0 | 0.00 | 0.01 | 0.00 | 79 | 994.8 |
| 20260510133504 | 42 | 339 | 2.0 | 4.0 | 0.00 | 0.01 | 0.00 | 80 | 994.7 |
| 20260510133005 | 41 | 24 | 2.0 | 4.0 | 0.00 | 0.01 | 0.00 | 80 | 994.9 |
| 20260510132504 | 41 | 24 | 2.0 | 4.0 | 0.00 | 0.01 | 0.00 | 81 | 994.9 |
| 20260510132003 | 41 | 19 | 1.0 | 3.0 | 0.00 | 0.01 | 0.00 | 81 | 994.9 |
| 20260510131503 | 40 | 19 | 2.0 | 4.0 | 0.00 | 0.01 | 0.00 | 82 | 994.9 |
| 20260510131003 | 40 | 333 | 1.0 | 3.0 | 0.00 | 0.01 | 0.00 | 82 | 994.9 |
| 20260510130501 | 40 | 308 | 1.0 | 3.0 | 0.00 | 0.01 | 0.00 | 82 | 995.0 |
| 20260510130101 | 40 | 5 | 1.0 | 3.0 | 0.00 | 0.01 | 0.00 | 81 | 994.9 |
| 20260510125702 | 40 | 5 | 1.0 | 3.0 | 0.00 | 0.02 | 0.00 | 81 | 994.9 |
| 20260510125100 | 40 | 24 | 1.0 | 3.0 | 0.00 | 0.02 | 0.00 | 81 | 994.8 |
| 20260510124603 | 40 | 24 | 1.0 | 3.0 | 0.00 | 0.02 | 0.00 | 81 | 994.9 |
| 20260510124057 | 40 | 24 | 1.0 | 3.0 | 0.00 | 0.02 | 0.00 | 80 | 994.9 |
| 20260510123557 | 41 | 28 | 0.0 | 0.0 | 0.00 | 0.02 | 0.00 | 80 | 995.0 |
| 20260510123056 | 41 | 28 | 0.0 | 0.0 | 0.00 | 0.02 | 0.00 | 80 | 995.0 |
| 20260510122555 | 41 | 27 | 0.0 | 0.0 | 0.00 | 0.02 | 0.00 | 80 | 995.0 |
| 20260510122056 | 41 | 27 | 0.0 | 2.0 | 0.00 | 0.02 | 0.00 | 79 | 995.0 |
| 20260510121555 | 41 | 27 | 0.0 | 3.0 | 0.00 | 0.02 | 0.00 | 79 | 995.1 |
| 20260510121053 | 41 | 27 | 1.0 | 4.0 | 0.00 | 0.02 | 0.00 | 79 | 995.0 |
| 20260510120553 | 41 | 28 | 2.0 | 4.0 | 0.00 | 0.02 | 0.00 | 79 | 995.0 |
| 20260510120053 | 42 | 21 | 1.0 | 4.0 | 0.00 | 0.02 | 0.00 | 79 | 995.0 |
| 20260510115551 | 42 | 29 | 2.0 | 3.0 | 0.00 | 0.04 | 0.00 | 78 | 994.9 |
| 20260510115051 | 42 | 28 | 1.0 | 4.0 | 0.00 | 0.04 | 0.00 | 78 | 995.0 |
| 20260510114604 | 42 | 34 | 1.0 | 3.0 | 0.00 | 0.04 | 0.00 | 78 | 995.0 |
| 20260510114052 | 42 | 30 | 2.0 | 3.0 | 0.00 | 0.04 | 0.00 | 78 | 995.0 |
| 20260510113549 | 42 | 360 | 2.0 | 3.0 | 0.00 | 0.04 | 0.00 | 78 | 995.0 |
| 20260510113056 | 42 | 360 | 1.0 | 4.0 | 0.00 | 0.04 | 0.00 | 78 | 994.9 |
| 20260510112549 | 42 | 5 | 2.0 | 4.0 | 0.00 | 0.04 | 0.00 | 78 | 995.0 |
| 20260510112049 | 42 | 329 | 1.0 | 4.0 | 0.00 | 0.04 | 0.00 | 78 | 995.0 |
| 20260510111551 | 42 | 24 | 2.0 | 5.0 | 0.00 | 0.04 | 0.00 | 78 | 995.1 |
| 20260510111048 | 42 | 31 | 2.0 | 5.0 | 0.00 | 0.04 | 0.00 | 78 | 995.0 |
| 20260510110548 | 42 | 29 | 2.0 | 8.0 | 0.00 | 0.04 | 0.00 | 78 | 995.1 |
| 20260510110054 | 42 | 355 | 2.0 | 8.0 | 0.00 | 0.04 | 0.00 | 78 | 995.0 |
| 20260510105547 | 42 | 5 | 1.0 | 4.0 | 0.00 | 0.04 | 0.00 | 78 | 995.1 |
| 20260510105047 | 42 | 5 | 2.0 | 4.0 | 0.00 | 0.04 | 0.00 | 78 | 995.0 |
| 20260510104548 | 42 | 11 | 2.0 | 5.0 | 0.00 | 0.04 | 0.00 | 78 | 995.0 |
| 20260510104046 | 42 | 333 | 2.0 | 6.0 | 0.00 | 0.04 | 0.00 | 78 | 994.9 |
| 20260510103546 | 42 | 24 | 1.0 | 4.0 | 0.00 | 0.04 | 0.00 | 78 | 994.8 |
| 20260510103051 | 42 | 24 | 2.0 | 9.0 | 0.00 | 0.04 | 0.00 | 78 | 994.9 |
| 20260510102545 | 42 | 355 | 3.0 | 9.0 | 0.00 | 0.04 | 0.00 | 78 | 994.8 |
| 20260510102044 | 42 | 61 | 3.0 | 6.0 | 0.00 | 0.04 | 0.00 | 78 | 994.8 |
| 20260510101557 | 42 | 355 | 2.0 | 4.0 | 0.00 | 0.04 | 0.00 | 78 | 994.8 |
| 20260510101043 | 42 | 32 | 2.0 | 4.0 | 0.00 | 0.04 | 0.00 | 78 | 994.8 |
| 20260510100543 | 42 | 351 | 2.0 | 4.0 | 0.00 | 0.04 | 0.00 | 77 | 994.8 |
| 20260510100050 | 42 | 355 | 2.0 | 4.0 | 0.00 | 0.04 | 0.00 | 77 | 994.8 |
| 20260510095542 | 42 | 5 | 2.0 | 4.0 | 0.00 | 0.04 | 0.00 | 78 | 994.8 |
| 20260510095042 | 42 | 273 | 2.0 | 5.0 | 0.00 | 0.04 | 0.00 | 77 | 994.8 |
| 20260510094547 | 42 | 22 | 2.0 | 6.0 | 0.00 | 0.04 | 0.00 | 77 | 994.6 |
| 20260510094043 | 42 | 29 | 3.0 | 6.0 | 0.00 | 0.04 | 0.00 | 77 | 994.7 |
| 20260510093538 | 42 | 13 | 2.0 | 4.0 | 0.00 | 0.04 | 0.00 | 77 | 994.6 |
| 20260510093040 | 42 | 27 | 2.0 | 6.0 | 0.00 | 0.04 | 0.00 | 77 | 994.5 |
| 20260510092537 | 42 | 17 | 3.0 | 6.0 | 0.00 | 0.04 | 0.00 | 77 | 994.5 |
| 20260510092036 | 42 | 355 | 2.0 | 4.0 | 0.00 | 0.04 | 0.00 | 77 | 994.4 |
| 20260510091535 | 43 | 10 | 2.0 | 4.0 | 0.00 | 0.04 | 0.00 | 76 | 994.4 |
| 20260510091036 | 43 | 360 | 2.0 | 10.0 | 0.00 | 0.04 | 0.00 | 77 | 994.4 |
| 20260510090535 | 43 | 355 | 3.0 | 10.0 | 0.00 | 0.04 | 0.00 | 77 | 994.5 |
| 20260510090036 | 43 | 5 | 2.0 | 5.0 | 0.00 | 0.04 | 0.00 | 76 | 994.4 |
| 20260510085533 | 43 | 22 | 2.0 | 5.0 | 0.00 | 0.04 | 0.00 | 76 | 994.4 |
| 20260510085033 | 43 | 5 | 2.0 | 4.0 | 0.00 | 0.04 | 0.00 | 76 | 994.3 |
| 20260510084534 | 43 | 355 | 2.0 | 4.0 | 0.00 | 0.04 | 0.00 | 76 | 994.4 |
| 20260510084031 | 43 | 355 | 2.0 | 4.0 | 0.00 | 0.04 | 0.00 | 76 | 994.4 |
| 20260510083531 | 43 | 355 | 1.0 | 3.0 | 0.00 | 0.04 | 0.00 | 75 | 994.3 |
| 20260510083030 | 43 | 322 | 2.0 | 3.0 | 0.00 | 0.04 | 0.00 | 75 | 994.3 |
| 20260510082528 | 44 | 319 | 2.0 | 3.0 | 0.00 | 0.04 | 0.00 | 74 | 994.3 |
| 20260510082026 | 44 | 317 | 1.0 | 4.0 | 0.00 | 0.04 | 0.00 | 74 | 994.3 |
| 20260510081535 | 44 | 313 | 2.0 | 4.0 | 0.00 | 0.04 | 0.00 | 73 | 994.2 |
| 20260510081025 | 45 | 342 | 2.0 | 4.0 | 0.00 | 0.04 | 0.00 | 73 | 994.2 |
| 20260510080523 | 45 | 345 | 1.0 | 4.0 | 0.00 | 0.04 | 0.00 | 72 | 994.1 |
| 20260510080038 | 45 | 355 | 2.0 | 4.0 | 0.00 | 0.04 | 0.00 | 72 | 994.2 |
| 20260510075522 | 45 | 324 | 1.0 | 9.0 | 0.00 | 0.04 | 0.00 | 71 | 994.1 |
| 20260510075019 | 45 | 331 | 2.0 | 9.0 | 0.00 | 0.04 | 0.00 | 71 | 994.1 |
| 20260510074518 | 46 | 319 | 2.0 | 4.0 | 0.00 | 0.04 | 0.00 | 70 | 994.0 |
| 20260510074018 | 46 | 355 | 1.0 | 5.0 | 0.00 | 0.04 | 0.00 | 70 | 994.1 |
| 20260510073516 | 46 | 26 | 2.0 | 5.0 | 0.00 | 0.04 | 0.00 | 70 | 994.0 |
| 20260510073028 | 46 | 23 | 2.0 | 5.0 | 0.00 | 0.04 | 0.00 | 69 | 994.0 |
| 20260510072515 | 47 | 26 | 2.0 | 5.0 | 0.00 | 0.04 | 0.00 | 69 | 993.9 |
| 20260510072013 | 47 | 16 | 2.0 | 4.0 | 0.00 | 0.04 | 0.00 | 68 | 993.9 |
| 20260510071518 | 47 | 20 | 2.0 | 6.0 | 0.00 | 0.04 | 0.00 | 68 | 993.9 |
| 20260510071011 | 47 | 15 | 3.0 | 6.0 | 0.00 | 0.04 | 0.00 | 67 | 993.9 |
| 20260510070512 | 48 | 10 | 2.0 | 6.0 | 0.00 | 0.04 | 0.00 | 67 | 993.9 |
| 20260510070011 | 48 | 9 | 3.0 | 12.0 | 0.00 | 0.04 | 0.00 | 67 | 993.8 |
| 20260510065510 | 48 | 26 | 2.0 | 12.0 | 0.00 | 0.04 | 0.00 | 66 | 993.8 |
| 20260510065010 | 48 | 10 | 2.0 | 5.0 | 0.00 | 0.04 | 0.00 | 66 | 993.8 |
| 20260510064512 | 49 | 30 | 3.0 | 5.0 | 0.00 | 0.04 | 0.00 | 66 | 993.7 |
| 20260510064008 | 49 | 5 | 2.0 | 5.0 | 0.00 | 0.04 | 0.00 | 66 | 993.7 |
| 20260510063507 | 49 | 21 | 1.0 | 5.0 | 0.00 | 0.04 | 0.00 | 66 | 993.7 |
| 20260510063006 | 49 | 20 | 2.0 | 5.0 | 0.00 | 0.04 | 0.00 | 66 | 993.7 |
| 20260510062505 | 49 | 48 | 2.0 | 5.0 | 0.00 | 0.04 | 0.00 | 65 | 993.7 |
| 20260510062004 | 50 | 40 | 2.0 | 5.0 | 0.00 | 0.04 | 0.00 | 65 | 993.6 |
| 20260510061506 | 50 | 21 | 2.0 | 6.0 | 0.00 | 0.04 | 0.00 | 65 | 993.5 |
| 20260510061004 | 50 | 25 | 2.0 | 6.0 | 0.00 | 0.04 | 0.00 | 65 | 993.6 |
| 20260510060504 | 50 | 9 | 1.0 | 4.0 | 0.00 | 0.04 | 0.00 | 65 | 993.6 |
| 20260510060007 | 50 | 5 | 2.0 | 5.0 | 0.00 | 0.04 | 0.00 | 64 | 993.5 |
| 20260510055502 | 50 | 22 | 2.0 | 5.0 | 0.00 | 0.04 | 0.00 | 64 | 993.5 |
| 20260510055103 | 51 | 5 | 1.0 | 5.0 | 0.00 | 0.04 | 0.00 | 64 | 993.4 |
| 20260510054601 | 51 | 5 | 1.0 | 3.0 | 0.00 | 0.04 | 0.00 | 63 | 993.5 |
| 20260510054058 | 51 | 341 | 0.0 | 4.0 | 0.00 | 0.04 | 0.00 | 63 | 993.4 |
| 20260510053556 | 51 | 30 | 1.0 | 4.0 | 0.00 | 0.04 | 0.00 | 62 | 993.4 |
| 20260510053058 | 52 | 24 | 1.0 | 4.0 | 0.00 | 0.04 | 0.00 | 62 | 993.4 |
| 20260510052554 | 52 | 329 | 1.0 | 4.0 | 0.00 | 0.04 | 0.00 | 62 | 993.2 |
| 20260510052054 | 53 | 5 | 2.0 | 4.0 | 0.00 | 0.04 | 0.00 | 61 | 993.3 |
| 20260510051605 | 53 | 325 | 1.0 | 4.0 | 0.00 | 0.04 | 0.00 | 60 | 993.3 |
| 20260510051053 | 53 | 323 | 2.0 | 5.0 | 0.00 | 0.04 | 0.00 | 60 | 993.2 |
| 20260510050553 | 53 | 309 | 0.0 | 6.0 | 0.00 | 0.04 | 0.00 | 60 | 993.2 |
| 20260510050059 | 54 | 24 | 1.0 | 7.0 | 0.00 | 0.04 | 0.00 | 59 | 993.2 |
| 20260510045550 | 54 | 5 | 2.0 | 7.0 | 0.00 | 0.04 | 0.00 | 59 | 993.1 |
| 20260510045050 | 54 | 43 | 2.0 | 4.0 | 0.00 | 0.04 | 0.00 | 59 | 993.2 |
| 20260510044549 | 54 | 5 | 1.0 | 3.0 | 0.00 | 0.04 | 0.00 | 59 | 993.2 |
| 20260510044048 | 55 | 48 | 0.0 | 3.0 | 0.00 | 0.04 | 0.00 | 58 | 993.1 |
| 20260510043547 | 55 | 50 | 0.0 | 3.0 | 0.00 | 0.04 | 0.00 | 58 | 993.2 |
| 20260510043048 | 55 | 5 | 0.0 | 4.0 | 0.00 | 0.04 | 0.00 | 57 | 993.2 |
| 20260510042548 | 55 | 34 | 1.0 | 4.0 | 0.00 | 0.04 | 0.00 | 56 | 993.2 |
| 20260510042047 | 56 | 9 | 1.0 | 4.0 | 0.00 | 0.04 | 0.00 | 57 | 993.2 |
| 20260510041547 | 56 | 42 | 1.0 | 5.0 | 0.00 | 0.04 | 0.00 | 56 | 993.1 |
| 20260510041047 | 56 | 32 | 3.0 | 5.0 | 0.00 | 0.04 | 0.00 | 55 | 993.2 |
| 20260510040549 | 56 | 19 | 2.0 | 5.0 | 0.00 | 0.04 | 0.00 | 55 | 993.2 |
| 20260510040048 | 57 | 329 | 2.0 | 9.0 | 0.00 | 0.04 | 0.00 | 54 | 993.2 |
| 20260510035548 | 57 | 14 | 2.0 | 9.0 | 0.00 | 0.04 | 0.00 | 53 | 993.2 |
| 20260510035047 | 57 | 69 | 2.0 | 7.0 | 0.00 | 0.04 | 0.00 | 53 | 993.1 |
| 20260510034547 | 57 | 27 | 1.0 | 8.0 | 0.00 | 0.04 | 0.00 | 53 | 993.1 |
| 20260510034047 | 58 | 33 | 2.0 | 8.0 | 0.00 | 0.04 | 0.00 | 52 | 993.1 |
| 20260510033549 | 58 | 37 | 1.0 | 10.0 | 0.00 | 0.04 | 0.00 | 52 | 993.1 |
| 20260510033054 | 58 | 52 | 4.0 | 10.0 | 0.00 | 0.04 | 0.00 | 51 | 993.1 |
| 20260510032545 | 59 | 32 | 2.0 | 8.0 | 0.00 | 0.04 | 0.00 | 51 | 993.1 |
| 20260510032045 | 59 | 322 | 2.0 | 4.0 | 0.00 | 0.04 | 0.00 | 50 | 993.2 |
| 20260510031548 | 59 | 313 | 1.0 | 5.0 | 0.00 | 0.04 | 0.00 | 51 | 993.1 |
| 20260510031049 | 59 | 34 | 2.0 | 6.0 | 0.00 | 0.04 | 0.00 | 51 | 993.1 |
| 20260510030544 | 59 | 360 | 2.0 | 6.0 | 0.00 | 0.04 | 0.00 | 49 | 993.1 |
| 20260510030044 | 60 | 20 | 1.0 | 9.0 | 0.00 | 0.04 | 0.00 | 49 | 993.1 |
| 20260510025543 | 60 | 83 | 1.0 | 9.0 | 0.00 | 0.04 | 0.00 | 48 | 993.1 |
| 20260510025043 | 60 | 46 | 2.0 | 6.0 | 0.00 | 0.04 | 0.00 | 46 | 993.1 |
| 20260510024543 | 60 | 35 | 0.0 | 8.0 | 0.00 | 0.04 | 0.00 | 47 | 993.1 |
| 20260510024042 | 60 | 313 | 0.0 | 8.0 | 0.00 | 0.04 | 0.00 | 50 | 993.0 |
| 20260510023542 | 60 | 98 | 3.0 | 8.0 | 0.00 | 0.04 | 0.00 | 48 | 993.1 |
| 20260510023042 | 60 | 5 | 2.0 | 5.0 | 0.00 | 0.04 | 0.00 | 49 | 993.0 |
| 20260510022542 | 60 | 305 | 1.0 | 5.0 | 0.00 | 0.04 | 0.00 | 48 | 992.9 |
| 20260510022044 | 60 | 355 | 2.0 | 9.0 | 0.00 | 0.04 | 0.00 | 49 | 992.9 |
| 20260510021634 | 60 | 40 | 2.0 | 9.0 | 0.00 | 0.04 | 0.00 | 48 | 993.0 |
| 20260510021040 | 60 | 22 | 1.0 | 6.0 | 0.00 | 0.04 | 0.00 | 48 | 993.0 |
| 20260510020540 | 60 | 63 | 1.0 | 4.0 | 0.00 | 0.04 | 0.00 | 46 | 993.1 |
| 20260510020039 | 60 | 164 | 1.0 | 4.0 | 0.00 | 0.04 | 0.00 | 48 | 993.1 |
| 20260510015539 | 60 | 18 | 1.0 | 4.0 | 0.00 | 0.04 | 0.00 | 47 | 993.2 |
| 20260510015037 | 60 | 82 | 1.0 | 6.0 | 0.00 | 0.04 | 0.00 | 47 | 993.2 |
| 20260510014551 | 60 | 77 | 2.0 | 8.0 | 0.00 | 0.04 | 0.00 | 46 | 993.3 |
| 20260510014037 | 60 | 76 | 2.0 | 8.0 | 0.00 | 0.04 | 0.00 | 48 | 993.4 |
| 20260510013537 | 60 | 98 | 3.0 | 7.0 | 0.00 | 0.04 | 0.00 | 48 | 993.4 |
| 20260510013035 | 60 | 65 | 2.0 | 5.0 | 0.00 | 0.04 | 0.00 | 48 | 993.3 |
| 20260510012534 | 60 | 103 | 1.0 | 8.0 | 0.00 | 0.04 | 0.00 | 47 | 993.5 |
| 20260510012037 | 60 | 84 | 0.0 | 8.0 | 0.00 | 0.04 | 0.00 | 48 | 993.4 |
| 20260510011534 | 60 | 70 | 1.0 | 6.0 | 0.00 | 0.04 | 0.00 | 48 | 993.5 |
| 20260510011032 | 60 | 175 | 0.0 | 4.0 | 0.00 | 0.04 | 0.00 | 49 | 993.5 |
| 20260510010531 | 59 | 131 | 0.0 | 4.0 | 0.00 | 0.04 | 0.00 | 49 | 993.6 |
| 20260510010041 | 59 | 105 | 2.0 | 4.0 | 0.00 | 0.04 | 0.00 | 50 | 993.7 |
| 20260510005530 | 59 | 155 | 0.0 | 4.0 | 0.00 | 0.04 | 0.00 | 53 | 993.7 |
| 20260510005029 | 58 | 86 | 2.0 | 4.0 | 0.00 | 0.04 | 0.00 | 52 | 993.8 |
| 20260510004529 | 58 | 80 | 1.0 | 3.0 | 0.00 | 0.04 | 0.00 | 52 | 993.8 |
| 20260510004031 | 58 | 103 | 0.0 | 4.0 | 0.00 | 0.04 | 0.00 | 51 | 993.8 |
| 20260510003531 | 58 | 80 | 1.0 | 4.0 | 0.00 | 0.04 | 0.00 | 52 | 993.9 |
| 20260510003028 | 58 | 20 | 0.0 | 3.0 | 0.00 | 0.04 | 0.00 | 52 | 993.9 |
| 20260510002525 | 59 | 187 | 1.0 | 3.0 | 0.00 | 0.04 | 0.00 | 52 | 994.0 |
| 20260510002026 | 59 | 202 | 1.0 | 7.0 | 0.00 | 0.04 | 0.00 | 53 | 994.0 |
| 20260510001526 | 59 | 135 | 1.0 | 7.0 | 0.00 | 0.04 | 0.00 | 51 | 994.1 |
| 20260510001026 | 59 | 152 | 0.0 | 8.0 | 0.00 | 0.04 | 0.00 | 52 | 994.2 |
| 20260510000526 | 59 | 111 | 0.0 | 8.0 | 0.00 | 0.04 | 0.00 | 53 | 994.2 |
| 20260510000025 | 59 | 162 | 1.0 | 4.0 | 0.00 | 0.04 | 0.00 | 52 | 994.1 |
| 20260509235524 | 59 | 141 | 0.0 | 4.0 | 0.00 | 0.04 | 0.00 | 54 | 994.2 |
| 20260509235024 | 59 | 88 | 1.0 | 4.0 | 0.00 | 0.04 | 0.00 | 54 | 994.3 |
| 20260509234524 | 59 | 143 | 1.0 | 6.0 | 0.00 | 0.04 | 0.00 | 55 | 994.3 |
| 20260509234024 | 58 | 123 | 2.0 | 6.0 | 0.00 | 0.04 | 0.00 | 55 | 994.2 |
| 20260509233521 | 58 | 209 | 1.0 | 5.0 | 0.00 | 0.04 | 0.00 | 55 | 994.2 |
| 20260509233021 | 58 | 131 | 1.0 | 5.0 | 0.00 | 0.04 | 0.00 | 54 | 994.2 |
| 20260509232524 | 58 | 152 | 1.0 | 7.0 | 0.00 | 0.04 | 0.00 | 54 | 994.1 |
| 20260509232020 | 58 | 225 | 3.0 | 7.0 | 0.00 | 0.04 | 0.00 | 54 | 994.1 |
| 20260509231518 | 57 | 126 | 1.0 | 6.0 | 0.00 | 0.04 | 0.00 | 53 | 994.1 |
| 20260509231017 | 57 | 102 | 2.0 | 7.0 | 0.00 | 0.04 | 0.00 | 54 | 994.2 |
| 20260509230518 | 57 | 111 | 1.0 | 9.0 | 0.00 | 0.04 | 0.00 | 56 | 994.0 |
| 20260509230024 | 57 | 55 | 5.0 | 9.0 | 0.00 | 0.04 | 0.00 | 55 | 994.1 |
| 20260509225516 | 56 | 180 | 1.0 | 5.0 | 0.00 | 0.04 | 0.00 | 56 | 994.1 |
| 20260509225015 | 57 | 176 | 0.0 | 5.0 | 0.00 | 0.04 | 0.00 | 55 | 994.2 |
| 20260509224520 | 57 | 60 | 1.0 | 4.0 | 0.00 | 0.04 | 0.00 | 56 | 994.1 |
| 20260509224014 | 56 | 22 | 2.0 | 7.0 | 0.00 | 0.04 | 0.00 | 57 | 994.2 |
| 20260509223514 | 56 | 36 | 3.0 | 7.0 | 0.00 | 0.04 | 0.00 | 56 | 994.2 |
| 20260509223014 | 56 | 355 | 1.0 | 8.0 | 0.00 | 0.04 | 0.00 | 58 | 994.2 |
| 20260509222513 | 56 | 21 | 3.0 | 8.0 | 0.00 | 0.04 | 0.00 | 57 | 994.2 |
| 20260509222013 | 56 | 49 | 2.0 | 5.0 | 0.00 | 0.04 | 0.00 | 59 | 994.2 |
| 20260509221512 | 56 | 67 | 2.0 | 6.0 | 0.00 | 0.04 | 0.00 | 58 | 994.1 |
| 20260509221012 | 56 | 314 | 3.0 | 6.0 | 0.00 | 0.04 | 0.00 | 61 | 994.2 |
| 20260509220510 | 56 | 127 | 1.0 | 6.0 | 0.00 | 0.04 | 0.00 | 59 | 994.2 |
| 20260509220009 | 55 | 131 | 1.0 | 10.0 | 0.00 | 0.04 | 0.00 | 59 | 994.1 |
| 20260509215508 | 55 | 133 | 3.0 | 10.0 | 0.00 | 0.04 | 0.00 | 61 | 994.2 |
| 20260509215006 | 55 | 44 | 2.0 | 11.0 | 0.00 | 0.04 | 0.00 | 59 | 994.3 |
| 20260509214505 | 54 | 65 | 6.0 | 10.0 | 0.00 | 0.04 | 0.00 | 59 | 994.2 |
| 20260509211057 | 54 | 107 | 3.0 | 6.0 | 0.00 | 0.04 | 0.04 | 64 | 994.8 |
| 20260509210555 | 54 | 115 | 0.0 | 6.0 | 0.00 | 0.04 | 0.04 | 66 | 994.8 |
| 20260509210054 | 54 | 92 | 1.0 | 6.0 | 0.00 | 0.04 | 0.04 | 64 | 994.9 |
| 20260509205556 | 54 | 281 | 2.0 | 7.0 | 0.00 | 0.04 | 0.04 | 65 | 994.9 |
| 20260509205052 | 54 | 107 | 3.0 | 6.0 | 0.00 | 0.04 | 0.04 | 63 | 994.9 |
| 20260509204551 | 53 | 50 | 2.0 | 6.0 | 0.00 | 0.04 | 0.04 | 68 | 994.8 |
| 20260509204050 | 52 | 95 | 1.0 | 3.0 | 0.00 | 0.04 | 0.04 | 69 | 994.9 |
| 20260509203548 | 51 | 269 | 0.0 | 2.0 | 0.00 | 0.04 | 0.04 | 71 | 995.0 |
| 20260509203048 | 51 | 269 | 1.0 | 4.0 | 0.00 | 0.04 | 0.04 | 70 | 995.1 |
| 20260509202548 | 51 | 269 | 2.0 | 4.0 | 0.00 | 0.04 | 0.04 | 71 | 995.1 |
| 20260509202047 | 52 | 310 | 2.0 | 4.0 | 0.00 | 0.04 | 0.04 | 72 | 995.2 |
| 20260509201546 | 51 | 272 | 0.0 | 4.0 | 0.00 | 0.04 | 0.04 | 73 | 995.2 |
| 20260509201048 | 51 | 283 | 1.0 | 4.0 | 0.00 | 0.04 | 0.04 | 70 | 995.3 |
| 20260509200544 | 51 | 66 | 1.0 | 4.0 | 0.00 | 0.04 | 0.04 | 71 | 995.3 |
| 20260509200051 | 51 | 96 | 0.0 | 2.0 | 0.00 | 0.04 | 0.04 | 72 | 995.3 |
| 20260509195544 | 51 | 98 | 1.0 | 4.0 | 0.00 | 0.04 | 0.04 | 71 | 995.5 |
| 20260509195045 | 51 | 101 | 1.0 | 4.0 | 0.00 | 0.04 | 0.04 | 70 | 995.3 |
| 20260509194553 | 51 | 34 | 1.0 | 3.0 | 0.00 | 0.04 | 0.04 | 70 | 995.4 |
| 20260509194041 | 51 | 86 | 1.0 | 3.0 | 0.00 | 0.04 | 0.04 | 72 | 995.4 |
| 20260509193541 | 51 | 82 | 1.0 | 3.0 | 0.00 | 0.04 | 0.04 | 73 | 995.5 |
| 20260509193043 | 50 | 179 | 1.0 | 3.0 | 0.00 | 0.04 | 0.04 | 73 | 995.5 |
| 20260509192538 | 50 | 111 | 1.0 | 4.0 | 0.00 | 0.04 | 0.04 | 74 | 995.5 |
| 20260509192037 | 50 | 92 | 0.0 | 4.0 | 0.00 | 0.04 | 0.04 | 76 | 995.6 |
| 20260509191536 | 49 | 58 | 1.0 | 4.0 | 0.00 | 0.04 | 0.04 | 75 | 995.6 |
| 20260509191037 | 49 | 45 | 0.0 | 4.0 | 0.00 | 0.04 | 0.04 | 77 | 995.5 |
| 20260509190535 | 49 | 5 | 1.0 | 5.0 | 0.00 | 0.04 | 0.04 | 77 | 995.6 |
| 20260509190033 | 49 | 86 | 1.0 | 5.0 | 0.00 | 0.04 | 0.04 | 76 | 995.6 |
| 20260509185532 | 48 | 33 | 1.0 | 4.0 | 0.00 | 0.04 | 0.04 | 79 | 995.6 |
| 20260509185032 | 48 | 101 | 1.0 | 7.0 | 0.00 | 0.04 | 0.04 | 80 | 995.7 |
| 20260509184534 | 48 | 94 | 2.0 | 7.0 | 0.00 | 0.04 | 0.04 | 79 | 995.7 |
| 20260509184030 | 47 | 67 | 1.0 | 6.0 | 0.00 | 0.04 | 0.04 | 81 | 995.8 |
| 20260509183528 | 47 | 111 | 1.0 | 6.0 | 0.00 | 0.04 | 0.04 | 79 | 995.8 |
| 20260509183028 | 47 | 10 | 1.0 | 7.0 | 0.00 | 0.04 | 0.04 | 81 | 995.8 |
| 20260509182527 | 47 | 24 | 3.0 | 7.0 | 0.00 | 0.04 | 0.04 | 81 | 995.8 |
| 20260509182025 | 47 | 65 | 3.0 | 6.0 | 0.00 | 0.04 | 0.04 | 82 | 995.8 |
| 20260509181524 | 46 | 73 | 1.0 | 3.0 | 0.00 | 0.04 | 0.04 | 84 | 995.8 |
| 20260509181024 | 46 | 200 | 0.0 | 5.0 | 0.00 | 0.04 | 0.04 | 84 | 995.9 |
| 20260509180522 | 45 | 98 | 2.0 | 5.0 | 0.00 | 0.04 | 0.04 | 85 | 995.9 |
| 20260509180020 | 45 | 71 | 1.0 | 6.0 | 0.00 | 0.04 | 0.04 | 85 | 995.8 |
| 20260509175518 | 45 | 71 | 0.0 | 8.0 | 0.00 | 0.04 | 0.04 | 84 | 995.9 |
| 20260509175018 | 45 | 92 | 3.0 | 8.0 | 0.00 | 0.04 | 0.04 | 85 | 995.9 |
| 20260509174517 | 45 | 117 | 3.0 | 7.0 | 0.00 | 0.04 | 0.04 | 85 | 995.9 |
| 20260509174016 | 45 | 97 | 1.0 | 7.0 | 0.00 | 0.04 | 0.04 | 86 | 996.0 |
| 20260509173518 | 45 | 30 | 1.0 | 5.0 | 0.00 | 0.04 | 0.04 | 85 | 996.1 |
| 20260509173022 | 44 | 74 | 2.0 | 5.0 | 0.00 | 0.04 | 0.04 | 85 | 996.1 |
| 20260509172516 | 44 | 84 | 2.0 | 6.0 | 0.00 | 0.04 | 0.04 | 87 | 996.1 |
| 20260509172012 | 44 | 84 | 2.0 | 6.0 | 0.00 | 0.04 | 0.04 | 89 | 996.2 |
| 20260509171510 | 43 | 80 | 0.0 | 4.0 | 0.00 | 0.04 | 0.04 | 92 | 996.2 |
| 20260509171008 | 43 | 40 | 3.0 | 4.0 | 0.00 | 0.04 | 0.04 | 92 | 996.3 |
| 20260509170507 | 42 | 76 | 0.0 | 4.0 | 0.00 | 0.04 | 0.04 | 93 | 996.3 |
| 20260509170006 | 42 | 51 | 0.0 | 4.0 | 0.00 | 0.04 | 0.04 | 94 | 996.3 |
| 20260509165504 | 42 | 56 | 0.0 | 4.0 | 0.00 | 0.04 | 0.04 | 94 | 996.3 |
| 20260509165003 | 41 | 65 | 1.0 | 4.0 | 0.00 | 0.04 | 0.04 | 94 | 996.5 |
| 20260509164502 | 41 | 78 | 0.0 | 4.0 | 0.00 | 0.04 | 0.04 | 94 | 996.5 |
| 20260509164001 | 41 | 92 | 1.0 | 4.0 | 0.00 | 0.04 | 0.04 | 94 | 996.5 |
| 20260509163559 | 41 | 78 | 1.0 | 3.0 | 0.00 | 0.04 | 0.04 | 95 | 996.5 |
| 20260509163104 | 40 | 89 | 0.0 | 3.0 | 0.00 | 0.04 | 0.04 | 95 | 996.5 |
| 20260509162558 | 40 | 82 | 0.0 | 0.0 | 0.00 | 0.04 | 0.04 | 95 | 996.6 |
| 20260509162057 | 40 | 328 | 0.0 | 0.0 | 0.00 | 0.04 | 0.04 | 95 | 996.5 |
| 20260509161603 | 40 | 328 | 0.0 | 0.0 | 0.00 | 0.04 | 0.04 | 95 | 996.6 |
| 20260509161053 | 39 | 328 | 0.0 | 0.0 | 0.00 | 0.04 | 0.04 | 95 | 996.5 |
| 20260509160552 | 39 | 323 | 0.0 | 0.0 | 0.00 | 0.04 | 0.04 | 95 | 996.7 |
| 20260509160051 | 39 | 323 | 0.0 | 0.0 | 0.00 | 0.04 | 0.04 | 95 | 996.8 |
| 20260509155548 | 39 | 323 | 0.0 | 0.0 | 0.00 | 0.04 | 0.04 | 95 | 996.8 |
| 20260509155047 | 38 | 319 | 0.0 | 0.0 | 0.00 | 0.04 | 0.04 | 95 | 996.8 |
| 20260509154550 | 38 | 319 | 0.0 | 0.0 | 0.00 | 0.04 | 0.04 | 95 | 996.8 |
| 20260509154046 | 38 | 319 | 0.0 | 0.0 | 0.00 | 0.04 | 0.04 | 95 | 997.0 |
| 20260509153545 | 38 | 319 | 0.0 | 0.0 | 0.00 | 0.04 | 0.04 | 95 | 996.9 |
| 20260509153055 | 38 | 319 | 0.0 | 0.0 | 0.00 | 0.04 | 0.04 | 95 | 997.0 |
| 20260509152543 | 38 | 319 | 0.0 | 0.0 | 0.00 | 0.04 | 0.04 | 95 | 997.1 |
| 20260509152042 | 38 | 319 | 0.0 | 0.0 | 0.00 | 0.04 | 0.04 | 95 | 997.0 |
| 20260509151540 | 37 | 319 | 0.0 | 0.0 | 0.00 | 0.04 | 0.04 | 95 | 997.2 |
| 20260509151039 | 37 | 319 | 0.0 | 0.0 | 0.00 | 0.04 | 0.04 | 95 | 997.1 |
| 20260509150538 | 37 | 319 | 0.0 | 0.0 | 0.00 | 0.04 | 0.04 | 95 | 997.1 |
| 20260509150037 | 37 | 319 | 0.0 | 0.0 | 0.00 | 0.04 | 0.04 | 95 | 997.2 |
| 20260509145537 | 37 | 319 | 0.0 | 0.0 | 0.00 | 0.04 | 0.04 | 95 | 997.2 |
| 20260509145037 | 37 | 319 | 0.0 | 0.0 | 0.00 | 0.04 | 0.04 | 95 | 997.3 |
| 20260509144541 | 37 | 319 | 0.0 | 0.0 | 0.00 | 0.04 | 0.04 | 95 | 997.3 |
| 20260509144035 | 37 | 319 | 0.0 | 0.0 | 0.00 | 0.04 | 0.04 | 95 | 997.4 |
| 20260509143537 | 37 | 319 | 0.0 | 0.0 | 0.00 | 0.04 | 0.04 | 95 | 997.4 |
| 20260509143034 | 37 | 319 | 0.0 | 1.0 | 0.00 | 0.04 | 0.04 | 95 | 997.5 |
| 20260509142533 | 37 | 319 | 0.0 | 2.0 | 0.00 | 0.04 | 0.04 | 95 | 997.5 |
| 20260509142033 | 37 | 319 | 0.0 | 0.0 | 0.01 | 0.04 | 0.04 | 95 | 997.5 |
| 20260509141538 | 37 | 321 | 0.0 | 0.0 | 0.01 | 0.04 | 0.04 | 95 | 997.6 |
| 20260509141031 | 37 | 321 | 0.0 | 0.0 | 0.01 | 0.04 | 0.04 | 95 | 997.7 |
| 20260509140529 | 37 | 321 | 0.0 | 0.0 | 0.01 | 0.04 | 0.04 | 95 | 997.9 |